Simultaneous Nadir Overpasses (SNOs) Predictions

Prediction of SNOs between FY3D and METOP-C Satellite Orbit:

Table of predicted SNOs for the next 14.0 days since TLE Epoch: 7/2/2022
Index Date (FY3D) Time (FY3D) Lat,Lon (FY3D) SZA (FY3D ) Date (METOP-C) Time (METOP-C) Lat,Lon (METOP-C) SZA (METOP-C ) Distance(km) Time Diff (sec)
1 07/02/2022 02:26:54 74.03, 138.17 51.00 07/02/2022 02:26:04 74.00, 138.19 50.98 3.53 50
2 07/02/2022 03:17:38 -74.01, -54.48 129.01 07/02/2022 03:16:47 -73.99, -54.52 129.03 3.29 51
3 07/02/2022 04:08:25 74.01, 112.83 50.99 07/02/2022 04:07:25 74.02, 112.92 51.01 3.01 60
4 07/02/2022 04:59:09 -74.00, -79.82 129.03 07/02/2022 04:58:08 -74.01, -79.79 129.00 2.20 61
5 07/02/2022 05:49:56 73.99, 87.49 50.98 07/02/2022 05:48:47 74.00, 87.53 50.99 1.50 69
6 07/02/2022 06:40:40 -73.98,-105.16 129.04 07/02/2022 06:39:30 -73.99,-105.18 129.02 1.66 70
7 07/02/2022 07:31:25 73.88, 62.40 50.86 07/02/2022 07:30:11 73.88, 61.90 50.89 15.55 74
8 07/02/2022 08:22:08 -73.82,-130.13 129.21 07/02/2022 08:20:55 -73.82,-130.92 129.16 24.47 73
9 07/02/2022 09:12:48 73.47, 38.00 50.42 07/02/2022 09:11:40 73.51, 35.69 50.56 73.25 68
10 07/02/2022 10:03:32 -73.45,-154.66 129.59 07/02/2022 10:02:24 -73.46,-157.12 129.49 78.00 68



Historial Predications of SNOs between FY3D and METOP-C
